Regional Weather Roundup
Issued by NWS

Home | Current Version | Previous Version | Text Only | Print | Product List | Glossary Off
Versions: 1 2 3 4 5 6 7 8 9 10 11 12 13 14 15 16 17 18 19 20 21 22 23 24 25 26 27 28 29 30 31 32 33 34 35 36 37 38 39 40 41 42 43 44 45 46 47 48 49 50

000
ASUS45 KPSR 240900
RWRAZ

PRELIMINARY ARIZONA REGIONAL HOURLY WEATHER ROUNDUP
NATIONAL WEATHER SERVICE PHOENIX AZ
200 AM MST THU APR 24 2014

NOTE: FAIR INDICATES FEW OR NO CLOUDS BELOW 12,000 FEET WITH NO
SIGNIFICANT WEATHER AND/OR OBSTRUCTIONS TO VISIBILITY.

AZZ001>003-036-241000-
NORTHWEST ARIZONA

CITY           SKY/WX    TMP DP  RH WIND       PRES   REMARKS
KINGMAN        PTCLDY    46   6  19 CALM      30.00R
$$

AZZ004>008-015-016-018-241000-
NORTH CENTRAL ARIZONA

CITY           SKY/WX    TMP DP  RH WIND       PRES   REMARKS
GRAND CANYON   PTCLDY    25   9  50 NE3       30.11S
WILLIAMS       MOCLDY    28   9  43 SE8       30.17S WCI  20
PRESCOTT       PTCLDY    44  15  31 S7        30.05R
FLAGSTAFF      PTCLDY    26  11  52 CALM      30.12R
PAYSON         PTCLDY    45  10  24 CALM      30.07S
PAGE           CLEAR     49  11  21 E3        30.04S
$$

AZZ009>014-017-241000-
NORTHEAST ARIZONA

CITY           SKY/WX    TMP DP  RH WIND       PRES   REMARKS
WINSLOW        NOT AVBL
SAINT JOHNS    PTCLDY    40   8  26 CALM      30.04S
WINDOW ROCK    PTCLDY    27  10  49 CALM      30.09S
SHOW LOW       CLEAR     32  10  40 S5        30.11R WCI  27
$$

AZZ023-241000-
GREATER PHOENIX AREA

CITY           SKY/WX    TMP DP  RH WIND       PRES   REMARKS
PHOENIX        CLEAR     72  16  12 N5        29.86S
DEER VALLEY    CLEAR     61  16  17 N5        29.88S
SCOTTSDALE     CLEAR     64  23  21 CALM      29.90S
$$

AZZ027-028-241000-
SOUTHWEST MARICOPA COUNTY AND PINAL COUNTY

CITY           SKY/WX    TMP DP  RH WIND       PRES   REMARKS
CASA GRANDE    CLEAR     57  12  17 CALM      29.90F
$$

AZZ503-504-507>509-241000-
SOUTHEAST ARIZONA

CITY           SKY/WX    TMP DP  RH WIND       PRES   REMARKS
TUCSON         CLEAR     58  15  18 SE6       29.97S
NOGALES        CLEAR     51  19  28 E5        30.01R
SAFFORD        CLEAR     58   8  13 W6        29.94S
$$

AZZ020-021-025-026-031-241000-
SOUTHWEST ARIZONA

CITY           SKY/WX    TMP DP  RH WIND       PRES   REMARKS
YUMA           NOT AVBL
$$

CAZ031-033-041-043-047-048-061-241000-
SOUTHERN CALIFORNIA

CITY           SKY/WX    TMP DP  RH WIND       PRES   REMARKS
DOWNTOWN L.A.  CLEAR     58  49  72 CALM      29.93F
L.A. AIRPORT   PTCLDY    59  49  69 CALM      29.94F
SAN DIEGO      PTCLDY    63  51  65 CALM      29.96F
BURBANK        CLEAR     57  37  47 CALM      29.93F
ONTARIO        PTCLDY    57  40  52 W7        29.95S
RIVERSIDE      CLEAR     57  42  57 SE3       29.95S
PALM SPRINGS   CLEAR     68  42  38 NW6       29.88F
EL CENTRO NAS  CLEAR     65  37  35 W10       29.84F
IMPERIAL       CLEAR     62  42  47 W8        29.84S
BLYTHE         CLEAR     68  12  11 W3        29.87S
$$

NVZ020-UTZ003-241000-
SOUTHERN NEVADA-UTAH

CITY           SKY/WX    TMP DP  RH WIND       PRES   REMARKS
LAS VEGAS      NOT AVBL
SALT LAKE CITY PTCLDY    40  23  50 SE9       30.06S WCI  34
$$

NMZ009-TXZ055-241000-
NEW MEXICO-WEST TEXAS

CITY           SKY/WX    TMP DP  RH WIND       PRES   REMARKS
ALBUQUERQUE    CLEAR     51  10  19 N7        30.03R
EL PASO        PTCLDY    68  12  11 W10       29.92F
$$


........................KEY........................
SKY/WX - SKY CONDITION/WEATHER
TMP    - TEMPERATURE IN FAHRENHEIT
DP     - DEW POINT IN FAHRENHEIT
RH     - RELATIVE HUMIDITY IN PERCENT
WIND   - DIRECTION AND SPEED IN MILES PER HOUR (MPH)
VRB    - VARIABLE WIND DIRECTION
PRES   - MEAN SEA LEVEL PRESSURE IN INCHES OF MERCURY
         F - FALLING PRESSURE   R - RISING PRESSURE
         S - STEADY PRESSURE
VSB    - VISIBILITY IN MILES
HX     - HEAT INDEX IN FAHRENHEIT
WCI    - WIND CHILL INDEX IN FAHRENHEIT
TC     - TEMPERATURE IN CELSIUS WHICH IS ALSO KNOWN AS
         TEMPERATURE IN CENTIGRADE
AFB    - AIR FORCE BASE
         LUKE AFB IS LUKE AIR FORCE BASE
         DAVIS-MONTHAN IS DAVIS-MONTHAN AIR FORCE BASE
NAS    - NAVAL AIR STATION
         EL CENTRO NAS IS EL CENTRO NAVAL AIR STATION
N/A    - NOT AVAILABLE



USA.gov is the U.S. government's official web portal to all federal, state and local government web resources and services.